ROMMA est une association bénévole à but non lucratif. Votre soutien est indispensable : ADHERER à ROMMA ou FAIRE un DON

Montélimar - (26, Drôme)

Basse vallée du Rhône (88 m)   Longitude: 04° 45' E   Latitude: 44° 32' N Station partenaire n°164
 

Détail journalier du     <<     >>

Température Precipitation Humidité Pression Vent Dir Rafale Dir. rafale Ensol.
Heure (°C) (mm) (%) (hPa) (km/h) (km/h) (min)
01:00 20.4062102600---0
02:00 19.8066102608NNO0
03:00 19.80691025010N0
04:00 19.3071102600---0
05:00 18.8073102500---0
06:00 18.4075102608N0
07:00 17.8077102600---0
08:00 17.2079102700---3
09:00 19.007510271---10N60
10:00 21.406810271---11N60
11:00 23.706210268ENE21NNE60
12:00 25.605610267NE19NO60
13:00 27.3050102510NE26NE60
14:00 29.104410253---18NE45
15:00 30.10421024010NNO11
16:00 29.404210232---13OSO5
17:00 30.103810232---15OSO2
18:00 29.304210233OSO16OSO0
19:00 28.50441023013SO0
20:00 27.3047102300---0
21:00 25.4052102400---0
22:00 23.7057102400---0
23:00 22.5061102400---0
minuit 21.3066102400---0

Graphique du 14-09-2019

 

Serveur OMMA